Torna al catalogo

FENGYUN 1C DEB

LostSSO
NORAD 31027·DEBRIS·🇨🇳 China

Lanciato May 10, 1999 da Taiyuan Satellite Launch Center

Loading…

Prossimi Passaggi (prossime 24 ore)

TLE

ObsoletoSource: Space-Track

Epoca: Aug 24, 2022, 03:23 UTC

1 31027U 99025BDV 22236.14106902  .00001907  00000-0  86465-3 0  9995
2 31027  99.0019 351.2614 0075883 237.6354 121.7462 14.21631312795509

Traccia FENGYUN 1C DEB in tempo reale con AllMySat

Download on the App Store